period_start,C,m1,H,J0,J1,J2,J3,J4,J5,JA,JB,JC,JD,JJ,JK,JN,#
2014-01-19 00:00:51,0.56,12.77,0.00,18.48,24.64,28.01,6.17,34.38,1027.85,2044.97,1021.25,1350.05,1448.42,349.23,331.88,34.63,0000 0000 0000 0000 000000
2014-01-19 00:01:51,0.50,12.77,0.00,18.47,24.64,28.01,6.27,34.25,1027.85,2044.96,1021.09,1350.02,1448.18,350.44,333.05,34.63,0000 0000 0000 0000 000000
2014-01-19 00:02:51,0.28,12.77,0.00,18.47,24.64,28.02,6.30,34.13,1027.84,2044.98,1021.03,1350.00,1448.08,350.45,333.06,34.64,0000 0000 0000 0000 000000
2014-01-19 00:03:52,0.11,12.77,0.00,18.47,24.64,28.02,6.06,34.17,1027.83,2044.98,1021.01,1349.98,1448.02,348.60,331.13,34.65,0000 0000 0000 0000 000000
2014-01-19 00:04:52,0.08,12.77,0.00,18.47,24.63,28.00,6.33,34.21,1027.85,2044.99,1020.98,1349.96,1448.01,350.25,333.03,34.65,0000 0000 0000 0000 000000
2014-01-19 00:05:52,0.03,12.78,0.00,18.47,24.63,27.99,6.07,34.17,1027.85,2044.99,1020.97,1349.93,1448.00,347.92,330.95,34.66,0000 0000 0000 0000 000000
2014-01-19 00:06:53,0.05,12.78,0.00,18.48,24.62,28.00,6.20,33.92,1027.85,2044.99,1020.92,1349.77,1447.97,349.40,332.36,34.66,0000 0000 0000 0000 000000
2014-01-19 00:07:53,0.19,12.78,0.00,18.47,24.62,27.99,6.25,33.88,1027.85,2044.99,1020.64,1349.46,1447.95,350.64,333.23,34.67,0000 0000 0000 0000 000000
2014-01-19 00:08:53,0.60,12.78,0.00,18.47,24.62,28.01,6.22,34.29,1027.84,2044.99,1020.29,1349.18,1447.79,349.86,332.50,34.67,0000 0000 0000 0000 000000
2014-01-19 00:09:53,0.60,12.78,0.00,18.47,24.62,28.00,6.17,34.04,1027.85,2044.99,1020.12,1349.09,1447.45,349.34,332.38,34.68,0000 0000 0000 0000 000000
2014-01-19 00:10:54,0.41,12.79,0.00,18.47,24.62,27.99,6.28,34.17,1027.85,2044.98,1020.05,1349.03,1447.22,349.86,332.19,34.69,0000 0000 0000 0000 000000
2014-01-19 00:11:54,0.22,12.79,0.00,18.47,24.62,27.98,6.30,34.21,1027.85,2044.97,1020.01,1349.01,1447.08,349.81,332.07,34.69,0000 0000 0000 0000 000000
2014-01-19 00:12:54,0.09,12.79,0.00,18.46,24.62,27.97,6.35,34.08,1027.85,2044.98,1020.00,1349.00,1447.02,350.18,332.82,34.70,0000 0000 0000 0000 000000
2014-01-19 00:13:54,0.05,12.79,0.00,18.45,24.62,27.97,6.17,34.00,1027.85,2044.98,1019.97,1348.99,1447.01,349.52,332.19,34.70,0000 0000 0000 0000 000000
2014-01-19 00:14:55,0.04,12.79,0.00,18.44,24.62,27.96,6.21,33.96,1027.85,2044.98,1019.95,1348.98,1447.00,348.60,331.65,34.71,0000 0000 0000 0000 000000
2014-01-19 00:15:55,0.03,12.79,0.00,18.44,24.62,27.95,6.33,33.88,1027.85,2044.99,1019.76,1348.84,1446.98,350.76,333.39,34.72,0000 0000 0000 0000 000000
2014-01-19 00:16:55,0.31,12.79,0.00,18.45,24.61,27.97,6.15,34.13,1027.85,2044.99,1019.36,1348.54,1446.92,348.77,331.25,34.72,0000 0000 0000 0000 000000
2014-01-19 00:17:55,0.71,12.80,0.00,18.45,24.60,27.98,6.34,33.88,1027.85,2044.99,1019.13,1348.27,1446.73,349.61,332.29,34.73,0000 0000 0000 0000 000000
2014-01-19 00:18:56,0.53,12.80,0.00,18.44,24.60,27.97,6.13,33.88,1027.85,2044.99,1019.05,1348.14,1446.44,349.21,331.91,34.73,0000 0000 0000 0000 000000
2014-01-19 00:19:56,0.30,12.80,0.00,18.44,24.60,27.97,6.22,33.92,1027.85,2044.99,1019.01,1348.07,1446.18,349.74,332.41,34.74,0000 0000 0000 0000 000000
2014-01-19 00:20:56,0.20,12.80,0.00,18.44,24.60,27.96,6.36,34.13,1027.85,2044.99,1019.00,1348.02,1446.06,350.15,332.81,34.74,0000 0000 0000 0000 000000
2014-01-19 00:21:57,0.10,12.80,0.00,18.43,24.60,27.97,6.17,34.13,1027.86,2044.99,1018.99,1348.00,1446.02,350.19,332.77,34.75,0000 0000 0000 0000 000000
2014-01-19 00:22:57,0.04,12.80,0.00,18.42,24.60,27.96,6.30,34.04,1027.85,2044.99,1018.95,1348.00,1446.00,350.15,332.83,34.76,0000 0000 0000 0000 000000
2014-01-19 00:23:57,0.05,12.80,0.00,18.42,24.60,27.97,6.26,34.29,1027.85,2044.99,1018.74,1347.99,1446.00,349.89,332.59,34.76,0000 0000 0000 0000 000000
2014-01-19 00:24:57,0.26,12.80,0.00,18.42,24.60,27.97,6.25,34.04,1027.85,2044.99,1018.38,1347.97,1445.99,349.67,332.38,34.77,0000 0000 0000 0000 000000
2014-01-19 00:25:57,0.35,12.81,0.00,18.42,24.60,27.98,6.14,34.04,1027.85,2044.99,1018.15,1347.78,1445.94,349.68,332.38,34.77,0000 0000 0000 0000 000000
2014-01-19 00:26:57,0.40,12.81,0.00,18.42,24.60,27.98,6.29,34.08,1027.85,2044.99,1018.05,1347.41,1445.71,350.32,333.00,34.78,0000 0000 0000 0000 000000
2014-01-19 00:27:58,0.50,12.81,0.00,18.42,24.59,27.96,6.19,34.13,1027.85,2044.99,1018.02,1347.17,1445.32,349.33,332.28,34.79,0000 0000 0000 0000 000000
2014-01-19 00:28:58,0.41,12.81,0.00,18.42,24.59,27.92,6.27,34.04,1027.85,2044.99,1018.00,1347.06,1445.11,350.48,332.69,34.79,0000 0000 0000 0000 000000
2014-01-19 00:29:58,0.20,12.81,0.00,18.42,24.58,27.94,6.23,34.04,1027.85,2044.99,1017.98,1347.02,1445.04,349.78,332.91,34.80,0000 0000 0000 0000 000000
2014-01-19 00:30:58,0.07,12.82,0.00,18.41,24.57,27.95,6.09,34.13,1027.85,2044.99,1017.97,1347.00,1445.01,348.73,331.49,34.80,0000 0000 0000 0000 000000
2014-01-19 00:31:59,0.04,12.82,0.00,18.40,24.57,27.94,6.25,34.04,1027.85,2044.99,1017.86,1347.00,1445.00,349.36,332.09,34.81,0000 0000 0000 0000 000000
2014-01-19 00:32:59,0.15,12.82,0.00,18.40,24.57,27.94,6.18,34.04,1027.85,2044.99,1017.49,1346.99,1444.99,350.03,332.74,34.82,0000 0000 0000 0000 000000
2014-01-19 00:33:59,0.42,12.82,0.00,18.40,24.57,27.94,6.12,34.00,1027.85,2044.99,1017.25,1346.97,1444.98,349.15,331.94,34.82,0000 0000 0000 0000 000000
2014-01-19 00:34:59,0.23,12.82,0.00,18.39,24.57,27.95,6.23,34.04,1027.85,2044.99,1017.11,1346.90,1444.93,349.57,332.41,34.83,0000 0000 0000 0000 000000
2014-01-19 00:35:59,0.20,12.82,0.00,18.39,24.57,27.95,6.35,34.00,1027.85,2044.99,1017.04,1346.73,1444.69,350.78,333.31,34.83,0000 0000 0000 0000 000000
2014-01-19 00:37:00,0.37,12.82,0.00,18.40,24.57,27.93,6.05,33.79,1027.85,2044.99,1017.01,1346.39,1444.35,348.43,331.43,34.84,0000 0000 0000 0000 000000
2014-01-19 00:38:00,0.45,12.83,0.00,18.41,24.57,27.91,6.18,33.92,1027.85,2044.99,1017.00,1346.16,1444.13,348.84,331.59,34.84,0000 0000 0000 0000 000000
2014-01-19 00:39:00,0.28,12.83,0.00,18.40,24.57,27.91,6.20,34.13,1027.85,2044.99,1016.99,1346.08,1444.05,349.81,332.53,34.85,0000 0000 0000 0000 000000
2014-01-19 00:40:00,0.09,12.83,0.00,18.39,24.57,27.91,6.29,33.96,1027.85,2044.99,1016.98,1346.02,1444.02,349.80,332.55,34.86,0000 0000 0000 0000 000000
2014-01-19 00:41:00,0.07,12.83,0.00,18.38,24.57,27.92,6.23,33.71,1027.85,2044.99,1016.88,1346.01,1444.00,350.11,332.51,34.86,0000 0000 0000 0000 000000
2014-01-19 00:42:01,0.11,12.83,0.00,18.39,24.57,27.93,6.26,34.08,1027.85,2044.99,1016.49,1346.00,1443.98,349.82,333.05,34.87,0000 0000 0000 0000 000000
2014-01-19 00:43:01,0.47,12.83,0.00,18.38,24.57,27.94,6.17,33.96,1027.85,2044.99,1016.21,1345.98,1443.97,349.07,331.85,34.87,0000 0000 0000 0000 000000
2014-01-19 00:44:01,0.28,12.83,0.00,18.39,24.56,27.94,6.25,34.08,1027.85,2044.99,1016.08,1345.96,1443.89,350.02,332.75,34.88,0000 0000 0000 0000 000000
2014-01-19 00:45:01,0.18,12.83,0.00,18.38,24.56,27.93,6.23,34.13,1027.85,2044.99,1016.03,1345.85,1443.55,349.85,332.33,34.89,0000 0000 0000 0000 000000
2014-01-19 00:46:02,0.30,12.84,0.00,18.39,24.55,27.92,6.18,34.42,1027.85,2045.00,1016.01,1345.52,1443.23,350.50,333.20,34.89,0000 0000 0000 0000 000000
2014-01-19 00:47:02,0.45,12.84,0.00,18.39,24.55,27.91,6.10,34.38,1027.85,2045.00,1015.98,1345.26,1443.11,348.59,331.39,34.90,0000 0000 0000 0000 000000
2014-01-19 00:48:02,0.30,12.84,0.00,18.38,24.55,27.92,6.15,34.04,1027.85,2045.00,1015.97,1345.11,1443.04,350.19,333.16,34.90,0000 0000 0000 0000 000000
2014-01-19 00:49:03,0.13,12.84,0.00,18.38,24.55,27.93,6.28,34.08,1027.85,2045.00,1015.93,1345.04,1443.01,350.67,333.66,34.91,0000 0000 0000 0000 000000
2014-01-19 00:50:03,0.11,12.84,0.00,18.37,24.55,27.93,6.22,33.96,1027.85,2045.00,1015.74,1345.01,1443.00,349.79,332.24,34.91,0000 0000 0000 0000 000000
2014-01-19 00:51:03,0.23,12.84,0.00,18.37,24.55,27.91,6.21,33.79,1027.85,2045.01,1015.34,1345.00,1442.99,349.50,332.37,34.92,0000 0000 0000 0000 000000
2014-01-19 00:52:03,0.46,12.85,0.00,18.37,24.55,27.91,6.23,34.17,1027.85,2045.01,1015.14,1345.00,1442.98,348.98,332.18,34.93,0000 0000 0000 0000 000000
2014-01-19 00:53:04,0.17,12.85,0.00,18.37,24.55,27.92,6.27,34.00,1027.85,2045.02,1015.05,1344.98,1442.91,349.82,332.58,34.93,0000 0000 0000 0000 000000
2014-01-19 00:54:04,0.16,12.85,0.00,18.39,24.55,27.93,6.32,33.92,1027.85,2045.02,1015.02,1344.97,1442.61,350.47,333.18,34.94,0000 0000 0000 0000 000000
2014-01-19 00:55:04,0.21,12.85,0.00,18.38,24.55,27.92,6.13,34.17,1027.85,2045.01,1015.00,1344.81,1442.27,349.57,332.33,34.94,0000 0000 0000 0000 000000
2014-01-19 00:56:04,0.25,12.85,0.00,18.38,24.55,27.91,6.32,33.92,1027.85,2045.00,1014.99,1344.41,1442.10,350.20,333.14,34.95,0000 0000 0000 0000 000000
2014-01-19 00:57:05,0.43,12.85,0.00,18.37,24.54,27.90,6.22,34.04,1027.85,2045.01,1014.94,1344.18,1442.05,349.64,332.34,34.96,0000 0000 0000 0000 000000
2014-01-19 00:58:05,0.23,12.86,0.00,18.37,24.54,27.94,6.41,34.08,1027.85,2045.01,1014.59,1344.07,1442.02,351.81,334.47,34.96,0000 0000 0000 0000 000000
2014-01-19 00:59:05,0.46,12.86,0.00,18.37,24.54,27.89,6.38,34.04,1027.85,2045.01,1014.33,1344.02,1442.00,350.21,332.95,34.97,0000 0000 0000 0000 000000
2014-01-19 01:00:05,0.34,12.86,0.00,18.37,24.53,27.89,6.12,34.04,1027.85,2045.02,1014.13,1344.00,1441.98,349.31,332.26,34.97,0000 0000 0000 0000 000000
2014-01-19 01:01:06,0.25,12.86,0.00,18.37,24.53,27.86,3.07,17.21,1027.85,2045.01,1014.05,1344.00,1441.93,194.48,180.25,34.98,0000 0000 0000 0000 000009
2014-01-19 01:02:06,0.25,2.14,0.00,18.37,24.54,27.88,5.16,25.33,1027.85,2051.00,3605.12,3361.67,3649.31,286.96,279.59,0.00,0000 0000 0000 0000 000002
2014-01-19 01:03:06,0.25,0.00,0.00,18.37,24.55,27.88,6.21,30.38,1027.85,2051.00,3603.09,3360.79,3649.51,350.28,333.02,0.01,0000 0000 0000 0000 000002
2014-01-19 01:04:06,0.25,0.00,0.00,18.37,24.54,27.89,6.17,30.29,1027.85,2051.01,3601.59,3360.22,3649.11,349.84,332.59,0.01,0000 0000 0000 0000 000002
2014-01-19 01:05:07,0.25,0.00,0.00,18.37,24.53,27.87,6.25,30.46,1027.85,2051.00,3600.31,3359.53,3648.41,348.85,331.92,0.00,0000 0000 0000 0000 000000
2014-01-19 01:06:07,0.25,0.00,0.00,18.37,24.53,27.86,6.13,30.29,1027.85,2051.00,3599.26,3358.99,3647.70,349.22,332.22,0.00,0000 0000 0000 0000 000000
2014-01-19 01:07:07,0.25,0.00,0.00,18.37,24.52,27.85,6.20,30.17,1027.84,2051.00,3598.33,3358.38,3647.23,349.35,332.44,0.01,0000 0000 0000 0000 000000
2014-01-19 01:08:07,0.24,0.00,0.00,18.37,24.52,27.86,6.13,30.29,1027.85,2051.00,3597.47,3357.83,3646.60,349.96,332.42,0.01,0000 0000 0000 0000 000000
2014-01-19 01:09:08,0.25,0.00,0.00,18.37,24.52,27.87,6.27,30.46,1027.83,2051.00,3596.59,3357.30,3646.02,350.45,332.66,0.02,0000 0000 0000 0000 000000
2014-01-19 01:10:08,0.25,0.00,0.00,18.35,24.52,27.88,6.22,30.46,1027.85,2051.00,3595.70,3356.69,3645.39,349.71,332.74,0.03,0000 0000 0000 0000 000000
2014-01-19 01:11:08,0.25,0.00,0.00,18.35,24.52,27.86,6.22,30.33,1027.84,2051.01,3594.92,3356.21,3644.77,349.87,332.29,0.03,0000 0000 0000 0000 000000
2014-01-19 01:12:08,0.26,0.01,0.00,18.36,24.52,27.84,6.16,30.25,1027.85,2051.02,3594.16,3355.58,3644.24,349.34,332.39,0.04,0000 0000 0000 0000 000000
2014-01-19 01:13:09,0.26,0.01,0.00,18.37,24.52,27.85,6.06,30.17,1027.84,2051.01,3593.32,3355.13,3643.56,350.28,333.50,0.04,0000 0000 0000 0000 000000
2014-01-19 01:14:09,0.26,0.01,0.00,18.37,24.52,27.88,6.17,30.33,1027.85,2051.01,3592.49,3354.50,3642.90,350.28,333.02,0.05,0000 0000 0000 0000 000000
2014-01-19 01:15:09,0.27,0.01,0.00,18.37,24.51,27.89,6.02,30.21,1027.84,2051.01,3591.66,3354.03,3642.27,348.63,331.44,0.06,0000 0000 0000 0000 000000
2014-01-19 01:16:09,0.27,0.01,0.00,18.36,24.50,27.90,6.38,30.33,1027.82,2051.01,3590.84,3353.43,3641.58,350.87,333.58,0.06,0000 0000 0000 0000 000000
2014-01-19 01:17:10,0.27,0.01,0.00,18.35,24.50,27.89,6.40,30.50,1027.84,2051.01,3590.14,3352.98,3641.07,350.24,332.51,0.07,0000 0000 0000 0000 000000
2014-01-19 01:18:10,0.27,0.02,0.00,18.34,24.50,27.87,6.38,30.38,1027.84,2051.02,3589.40,3352.39,3640.44,350.57,333.58,0.07,0000 0000 0000 0000 000000
2014-01-19 01:19:10,0.28,0.02,0.00,18.35,24.50,27.87,6.39,30.33,1027.84,2051.00,3588.63,3351.87,3639.85,351.02,333.73,0.08,0000 0000 0000 0000 000000
2014-01-19 01:20:11,0.28,0.02,0.00,18.35,24.50,27.87,6.33,30.33,1027.84,2051.01,3587.81,3351.32,3639.25,349.88,332.24,0.09,0000 0000 0000 0000 000000
2014-01-19 01:21:11,0.28,0.02,0.00,18.36,24.50,27.87,6.15,30.21,1027.83,2051.03,3587.03,3350.74,3638.57,349.61,332.38,0.09,0000 0000 0000 0000 000000
2014-01-19 01:22:11,0.29,0.02,0.00,18.36,24.50,27.87,6.38,30.50,1027.82,2051.03,3586.26,3350.26,3638.04,350.59,333.30,0.10,0000 0000 0000 0000 000000
2014-01-19 01:23:11,0.28,0.02,0.00,18.36,24.50,27.87,6.31,30.50,1027.83,2051.02,3585.47,3349.65,3637.41,350.54,333.26,0.10,0000 0000 0000 0000 000000
2014-01-19 01:24:11,0.29,0.03,0.00,18.35,24.50,27.86,6.08,30.21,1027.85,2051.02,3584.67,3349.21,3636.71,348.87,331.55,0.11,0000 0000 0000 0000 000000
2014-01-19 01:25:12,0.29,0.03,0.00,18.35,24.50,27.87,6.24,30.38,1027.85,2051.01,3584.01,3348.59,3636.19,348.68,331.51,0.11,0000 0000 0000 0000 000000
2014-01-19 01:26:12,0.29,0.03,0.00,18.35,24.49,27.87,6.07,30.17,1027.85,2051.00,3583.37,3348.14,3635.56,348.93,331.90,0.12,0000 0000 0000 0000 000000
2014-01-19 01:27:12,0.28,0.03,0.00,18.34,24.49,27.85,6.08,30.08,1027.84,2051.05,3582.70,3347.50,3635.06,350.58,333.35,0.13,0000 0000 0000 0000 000000
2014-01-19 01:28:13,0.29,0.03,0.00,18.34,24.49,27.88,6.27,30.46,1027.84,2051.05,3581.97,3347.02,3634.43,350.97,333.70,0.13,0000 0000 0000 0000 000000
2014-01-19 01:29:13,0.29,0.03,0.00,18.33,24.47,27.89,6.19,30.25,1027.85,2051.03,3581.25,3346.43,3633.80,349.91,332.59,0.14,0000 0000 0000 0000 000000
2014-01-19 01:30:13,0.28,0.04,0.00,18.32,24.47,27.89,6.38,30.33,1027.85,2051.05,3580.50,3346.00,3633.26,350.44,333.18,0.14,0000 0000 0000 0000 000000
2014-01-19 01:31:14,0.28,0.04,0.00,18.32,24.47,27.88,6.12,30.33,1027.84,2051.05,3579.69,3345.41,3632.59,350.56,333.82,0.15,0000 0000 0000 0000 000000
2014-01-19 01:32:14,0.29,0.04,0.00,18.33,24.47,27.86,6.27,30.46,1027.83,2051.06,3578.91,3344.90,3632.07,349.75,332.56,0.16,0000 0000 0000 0000 000000
2014-01-19 01:33:14,0.28,0.04,0.00,18.33,24.47,27.85,6.19,30.13,1027.84,2051.03,3578.10,3344.34,3631.43,350.03,332.82,0.16,0000 0000 0000 0000 000000
2014-01-19 01:34:14,0.29,0.04,0.00,18.32,24.47,27.87,6.11,30.08,1027.84,2051.03,3577.36,3343.75,3630.76,349.40,332.24,0.17,0000 0000 0000 0000 000000
2014-01-19 01:35:15,0.29,0.04,0.00,18.32,24.47,27.87,6.35,30.29,1027.84,2051.05,3576.58,3343.27,3630.23,350.61,333.21,0.17,0000 0000 0000 0000 000000
2014-01-19 01:36:15,0.29,0.05,0.00,18.32,24.47,27.88,6.17,30.29,1027.83,2051.05,3575.83,3342.75,3629.59,349.22,332.07,0.18,0000 0000 0000 0000 000000
2014-01-19 01:37:15,0.28,0.05,0.00,18.32,24.47,27.85,6.26,30.17,1027.80,2051.07,3575.10,3342.26,3629.07,350.34,333.12,0.18,0000 0000 0000 0000 000000
2014-01-19 01:38:15,0.28,0.05,0.00,18.31,24.47,27.87,6.19,30.21,1027.83,2051.05,3574.40,3341.66,3628.44,349.95,332.63,0.19,0000 0000 0000 0000 000000
2014-01-19 01:39:16,0.27,0.05,0.00,18.30,24.46,27.86,6.13,30.29,1027.80,2051.03,3573.66,3341.20,3627.85,349.18,332.28,0.20,0000 0000 0000 0000 000000
2014-01-19 01:40:16,0.26,0.05,0.00,18.29,24.45,27.82,6.11,30.25,1027.82,2051.06,3572.86,3340.58,3627.30,349.41,332.26,0.20,0000 0000 0000 0000 000000
2014-01-19 01:41:16,0.30,0.05,0.00,18.31,24.45,27.84,6.20,30.21,1027.82,2051.05,3572.11,3340.12,3626.66,349.83,332.65,0.21,0000 0000 0000 0000 000000
2014-01-19 01:42:16,0.25,0.05,0.00,18.30,24.45,27.83,6.14,30.08,1027.80,2051.04,3571.36,3339.50,3626.13,350.05,332.86,0.21,0000 0000 0000 0000 000000
2014-01-19 01:43:17,0.29,0.06,0.00,18.30,24.45,27.83,6.08,30.17,1027.83,2051.05,3570.58,3339.06,3625.48,348.76,331.65,0.22,0000 0000 0000 0000 000000
2014-01-19 01:44:17,0.29,0.06,0.00,18.29,24.45,27.84,6.42,30.33,1027.83,2051.07,3569.81,3338.44,3624.95,350.49,333.30,0.23,0000 0000 0000 0000 000000
2014-01-19 01:45:17,0.29,0.06,0.00,18.29,24.45,27.82,6.22,30.50,1027.82,2051.07,3569.08,3337.93,3624.35,349.68,332.64,0.23,0000 0000 0000 0000 000000
2014-01-19 01:46:17,0.28,0.06,0.00,18.29,24.45,27.82,6.24,30.17,1027.79,2051.05,3568.26,3337.33,3623.67,349.82,332.64,0.24,0000 0000 0000 0000 000000
2014-01-19 01:47:18,0.31,0.06,0.00,18.29,24.45,27.83,6.22,30.33,1027.81,2051.06,3567.47,3336.66,3623.11,350.33,333.19,0.24,0000 0000 0000 0000 000000
2014-01-19 01:48:18,0.30,0.07,0.00,18.29,24.45,27.82,6.26,30.21,1027.83,2051.09,3566.71,3336.20,3622.45,350.38,333.21,0.25,0000 0000 0000 0000 000000
2014-01-19 01:49:18,0.30,0.07,0.00,18.28,24.44,27.84,6.36,30.58,1027.84,2051.09,3565.94,3335.59,3621.92,350.29,333.42,0.26,0000 0000 0000 0000 000000
2014-01-19 01:50:18,0.27,0.07,0.00,18.28,24.44,27.83,6.29,30.38,1027.83,2051.07,3565.25,3335.18,3621.35,350.07,333.06,0.26,0000 0000 0000 0000 000000
2014-01-19 01:51:19,0.26,0.07,0.00,18.27,24.43,27.82,6.43,30.63,1027.85,2051.06,3564.49,3334.60,3620.75,349.63,332.51,0.27,0000 0000 0000 0000 000000
2014-01-19 01:52:19,0.27,0.07,0.00,18.26,24.42,27.82,6.13,30.38,1027.84,2051.09,3563.68,3334.16,3620.22,349.99,332.86,0.27,0000 0000 0000 0000 000000
2014-01-19 01:53:19,0.30,0.07,0.00,18.26,24.42,27.82,6.45,30.50,1027.83,2051.19,3562.99,3333.57,3619.57,350.30,333.16,0.28,0000 0000 0000 0000 000000
2014-01-19 01:54:19,0.32,0.08,0.00,18.27,24.42,27.82,6.40,30.50,1027.81,2051.21,3562.24,3333.13,3619.09,351.03,333.83,0.28,0000 0000 0000 0000 000000
2014-01-19 01:55:20,0.27,0.08,0.00,18.26,24.42,27.82,6.24,30.42,1027.78,2051.14,3561.46,3332.52,3618.45,350.17,333.43,0.29,0000 0000 0000 0000 000000
2014-01-19 01:56:20,0.26,0.08,0.00,18.26,24.42,27.81,6.30,30.42,1027.77,2051.14,3560.65,3331.99,3617.80,350.14,332.98,0.30,0000 0000 0000 0000 000000
2014-01-19 01:57:20,0.29,0.08,0.00,18.27,24.42,27.81,6.21,30.46,1027.79,2051.18,3559.89,3331.39,3617.23,350.13,332.97,0.30,0000 0000 0000 0000 000000
2014-01-19 01:58:20,0.34,0.08,0.00,18.27,24.42,27.79,6.30,30.50,1027.68,2051.15,3559.11,3330.82,3616.55,350.94,333.71,0.31,0000 0000 0000 0000 000000
2014-01-19 01:59:21,0.25,0.08,0.00,18.27,24.42,27.79,6.27,30.46,1027.61,2051.19,3558.40,3330.30,3616.11,350.05,332.83,0.31,0000 0000 0000 0000 000000
2014-01-19 02:00:21,0.31,0.09,0.00,18.27,24.41,27.80,6.32,30.46,1027.66,2051.25,3557.63,3329.80,3615.50,350.59,333.36,0.32,0000 0000 0000 0000 000000
2014-01-19 02:01:21,0.26,0.09,0.00,18.27,24.40,27.78,6.19,30.50,1027.68,2051.19,3556.89,3329.30,3614.91,349.81,332.63,0.33,0000 0000 0000 0000 000000
2014-01-19 02:02:22,0.25,0.09,0.00,18.27,24.40,27.77,6.20,30.33,1027.58,2051.20,3556.16,3328.75,3614.31,349.96,332.32,0.33,0000 0000 0000 0000 000000
2014-01-19 02:03:22,0.28,0.09,0.00,18.28,24.40,27.77,6.24,30.42,1027.72,2051.24,3555.43,3328.24,3613.67,349.53,332.36,0.34,0000 0000 0000 0000 000000
2014-01-19 02:04:22,0.31,0.09,0.00,18.27,24.40,27.78,6.36,30.42,1027.70,2051.27,3554.68,3327.61,3613.11,350.57,333.35,0.34,0000 0000 0000 0000 000000
2014-01-19 02:05:22,0.34,0.09,0.00,18.27,24.40,27.76,6.26,30.25,1027.64,2051.32,3553.94,3327.21,3612.48,349.22,332.06,0.35,0000 0000 0000 0000 000000
2014-01-19 02:06:23,0.30,0.10,0.00,18.25,24.40,27.77,6.21,30.17,1027.57,2051.52,3553.28,3326.74,3612.08,350.65,333.41,0.35,0000 0000 0000 0000 000000
2014-01-19 02:07:23,0.36,0.10,0.00,18.25,24.40,27.77,6.15,30.38,1027.48,2051.67,3552.54,3326.26,3611.46,349.94,332.72,0.36,0000 0000 0000 0000 000000
2014-01-19 02:08:23,0.37,0.10,0.00,18.27,24.40,27.76,6.27,30.54,1027.48,2051.59,3551.82,3325.69,3610.88,349.92,332.67,0.37,0000 0000 0000 0000 000000
2014-01-19 02:09:24,0.22,0.10,0.00,18.27,24.40,27.78,6.29,30.50,1027.43,2051.53,3550.99,3325.15,3610.30,349.85,332.58,0.37,0000 0000 0000 0000 000000
2014-01-19 02:10:24,0.26,0.10,0.00,18.26,24.39,27.79,6.13,30.58,1027.41,2051.45,3550.12,3324.49,3609.63,349.89,332.63,0.38,0000 0000 0000 0000 000000
2014-01-19 02:11:24,0.22,0.11,0.00,18.25,24.38,27.81,6.39,30.75,1027.62,2051.43,3549.38,3324.02,3609.07,349.87,332.68,0.38,0000 0000 0000 0000 000000
2014-01-19 02:12:24,0.30,0.11,0.00,18.24,24.37,27.78,6.36,30.54,1027.79,2051.49,3548.63,3323.41,3608.44,349.65,332.54,0.39,0000 0000 0000 0000 000000
2014-01-19 02:13:25,0.33,0.11,0.00,18.24,24.37,27.76,6.19,30.58,1027.85,2051.53,3548.06,3323.00,3607.89,350.17,333.06,0.40,0000 0000 0000 0000 000000
2014-01-19 02:14:25,0.29,0.11,0.00,18.22,24.37,27.75,6.43,30.50,1027.85,2051.60,3547.36,3322.41,3607.32,351.30,334.16,0.40,0000 0000 0000 0000 000000
2014-01-19 02:15:25,0.31,0.11,0.00,18.22,24.37,27.76,6.23,30.63,1027.85,2051.63,3546.58,3321.99,3606.72,349.71,332.65,0.41,0000 0000 0000 0000 000000
2014-01-19 02:16:26,0.25,0.11,0.00,18.21,24.37,27.77,6.21,30.29,1027.85,2051.57,3545.78,3321.39,3606.19,350.83,333.99,0.41,0000 0000 0000 0000 000000
2014-01-19 02:17:26,0.27,0.12,0.00,18.20,24.37,27.76,6.30,30.33,1027.83,2051.63,3545.06,3320.85,3605.53,350.09,333.02,0.42,0000 0000 0000 0000 000000
2014-01-19 02:18:26,0.32,0.12,0.00,18.21,24.37,27.73,6.17,30.38,1027.83,2051.68,3544.35,3320.32,3605.05,349.45,332.40,0.43,0000 0000 0000 0000 000000
2014-01-19 02:19:26,0.30,0.12,0.00,18.22,24.37,27.75,6.32,30.25,1027.83,2051.72,3543.60,3319.91,3604.43,350.50,333.47,0.43,0000 0000 0000 0000 000000
2014-01-19 02:20:27,0.29,0.12,0.00,18.22,24.37,27.76,6.07,30.25,1027.82,2051.77,3542.87,3319.35,3603.99,349.71,332.64,0.44,0000 0000 0000 0000 000000
2014-01-19 02:21:27,0.28,0.12,0.00,18.22,24.36,27.75,6.35,30.38,1027.81,2051.80,3542.22,3318.88,3603.39,349.95,333.07,0.44,0000 0000 0000 0000 000000
2014-01-19 02:22:27,0.29,0.13,0.00,18.22,24.35,27.75,6.28,30.29,1027.81,2051.87,3541.51,3318.34,3602.94,350.24,333.14,0.45,0000 0000 0000 0000 000000
2014-01-19 02:23:28,0.30,0.13,0.00,18.21,24.35,27.77,6.13,30.25,1027.80,2051.92,3540.78,3317.95,3602.35,349.79,332.51,0.45,0000 0000 0000 0000 000000
2014-01-19 02:24:28,0.28,0.13,0.00,18.19,24.35,27.76,6.20,30.33,1027.71,2051.89,3540.01,3317.38,3601.70,350.21,333.50,0.46,0000 0000 0000 0000 000000
2014-01-19 02:25:28,0.27,0.13,0.00,18.19,24.35,27.76,6.09,30.13,1027.71,2051.90,3539.29,3316.82,3601.20,349.56,332.36,0.47,0000 0000 0000 0000 000000
2014-01-19 02:26:28,0.30,0.13,0.00,18.19,24.35,27.75,6.31,30.38,1027.75,2051.91,3538.56,3316.30,3600.58,350.31,332.92,0.47,0000 0000 0000 0000 000000
2014-01-19 02:27:29,0.26,0.13,0.00,18.19,24.35,27.75,6.25,30.21,1027.69,2051.90,3537.83,3315.76,3600.12,350.71,333.64,0.48,0000 0000 0000 0000 000000
2014-01-19 02:28:29,0.26,0.14,0.00,18.19,24.35,27.74,6.17,30.33,1027.64,2051.91,3537.15,3315.27,3599.47,350.15,333.22,0.48,0000 0000 0000 0000 000000
2014-01-19 02:29:29,0.30,0.14,0.00,18.19,24.35,27.74,6.28,30.63,1027.72,2051.90,3536.42,3314.64,3598.90,349.75,332.67,0.49,0000 0000 0000 0000 000000
2014-01-19 02:30:29,0.29,0.14,0.00,18.19,24.34,27.72,6.24,30.42,1027.77,2051.90,3535.64,3314.18,3598.31,350.79,333.67,0.50,0000 0000 0000 0000 000000
2014-01-19 02:31:29,0.28,0.14,0.00,18.18,24.34,27.72,6.31,30.58,1027.76,2051.87,3534.87,3313.51,3597.67,350.77,333.66,0.50,0000 0000 0000 0000 000000
2014-01-19 02:32:30,0.26,0.14,0.00,18.19,24.33,27.71,6.12,30.71,1027.79,2051.88,3534.24,3313.14,3597.22,349.44,332.40,0.51,0000 0000 0000 0000 000000
2014-01-19 02:33:30,0.26,0.14,0.00,18.17,24.33,27.72,6.28,30.54,1027.82,2051.92,3533.54,3312.56,3596.59,350.02,332.98,0.51,0000 0000 0000 0000 000000
2014-01-19 02:34:30,0.27,0.14,0.00,18.17,24.32,27.73,6.12,30.54,1027.83,2051.92,3532.86,3312.17,3596.16,349.66,332.65,0.52,0000 0000 0000 0000 000000
2014-01-19 02:35:31,0.27,0.15,0.00,18.17,24.32,27.74,6.19,30.54,1027.85,2051.95,3532.15,3311.60,3595.51,349.35,332.36,0.52,0000 0000 0000 0000 000000
2014-01-19 02:36:31,0.28,0.15,0.00,18.17,24.32,27.72,6.17,30.58,1027.85,2051.94,3531.41,3311.15,3594.92,350.02,332.99,0.53,0000 0000 0000 0000 000000